Weather History for Phoenix, AZ

Change the Weather History Date:

Monday, January 6, 2014

  Actual Average Record
Temperature  
Mean Temperature 54 °F 55 °F  
Max Temperature 68 °F 66 °F 81 °F (2006)
Min Temperature 39 °F 45 °F 17 °F (1913)
Degree Days  
Heating Degree Days 11 10  
Month to date heating degree days 44 60  
Since 1 July heating degree days 361 461  
Cooling Degree Days 0 0  
Month to date cooling degree days 0 0  
Year to date cooling degree days 0 0  
Growing Degree Days 4 (Base 50)    
Moisture  
Dew Point 11 °F    
Average Humidity 28    
Maximum Humidity 49    
Minimum Humidity 7    
Precipitation  
Precipitation 0.00 in 0.03 in 0.76 in (1965)
Month to date precipitation 0.00 0.18  
Year to date precipitation 0.00 0.18  
Snow  
Snow 0.00 in - - ()
Month to date snowfall 0.0  
Year to date snowfall 0.0  
Since 1 July snowfall 0.0  
Snow Depth 0.00 in    
Sea Level Pressure  
Sea Level Pressure 30.19 in    
Wind  
Wind Speed 4 mph (North)    
Max Wind Speed 14 mph    
Max Gust Speed 18 mph    
Visibility 10 miles    
Events      
T = Trace of Precipitation, MM = Missing Value Source: NWS Daily Summary

Daily Weather History Graph

Daily Weather History Graph

Search for Another Location

Airport:

Trip Planner

Search our weather history database for the weather conditions in past years. The results will help you decide how hot, cold, wet, or windy it might be!

Date:

Astronomy

Jan. 06, 2014 Rise Set
Actual Time 7:32 AM MST 5:35 PM MST
Civil Twilight 7:05 AM MST 6:02 PM MST
Nautical Twilight 6:34 AM MST 6:33 PM MST
Astronomical Twilight 6:04 AM MST 7:03 PM MST
Moon 11:09 AM MST (1/6) 11:51 PM MST (1/6)
Length of Visible Light 10h 57m
Length of Day
10h 02m
Waxing Crescent, 35% of the Moon is Illuminated
Jan 6
Waxing Crescent
Jan 7
First Quarter
Jan 15
Full
Jan 23
Last Quarter
Jan 30
New

Hourly Weather History & Observations

Time (MST) Temp. Windchill Dew Point Humidity Pressure Visibility Wind Dir Wind Speed Gust Speed Precip Events Conditions
12:51 AM 46.9 °F - 21.0 °F 36% 30.18 in 10.0 mi Calm Calm - N/A   Clear
1:51 AM 45.0 °F - 24.1 °F 44% 30.19 in 10.0 mi Calm Calm - N/A   Clear
2:51 AM 43.0 °F - 24.1 °F 47% 30.20 in 10.0 mi Calm Calm - N/A   Clear
3:51 AM 44.1 °F 42.5 °F 23.0 °F 43% 30.20 in 10.0 mi ESE 3.5 mph - N/A   Clear
4:51 AM 44.1 °F 41.5 °F 17.1 °F 34% 30.21 in 10.0 mi ENE 4.6 mph - N/A   Clear
5:51 AM 44.1 °F 42.5 °F 18.0 °F 35% 30.22 in 10.0 mi NNW 3.5 mph - N/A   Clear
6:51 AM 41.0 °F - 21.9 °F 47% 30.25 in 10.0 mi Calm Calm - N/A   Clear
7:51 AM 43.0 °F - 18.0 °F 37% 30.26 in 10.0 mi Calm Calm - N/A   Clear
8:51 AM 46.0 °F 44.8 °F 21.0 °F 37% 30.28 in 10.0 mi West 3.5 mph - N/A   Clear
9:51 AM 53.1 °F - 14.0 °F 21% 30.29 in 10.0 mi Calm Calm - N/A   Clear
10:51 AM 60.1 °F - -0.9 °F 9% 30.28 in 10.0 mi NE 11.5 mph - N/A   Clear
11:51 AM 62.1 °F - -4.0 °F 7% 30.25 in 10.0 mi ENE 6.9 mph - N/A   Clear
12:51 PM 64.0 °F - -2.0 °F 7% 30.20 in 10.0 mi NE 4.6 mph - N/A   Partly Cloudy
1:51 PM 64.9 °F - -0.0 °F 7% 30.17 in 10.0 mi North 5.8 mph - N/A   Partly Cloudy
2:51 PM 66.9 °F - 1.9 °F 8% 30.15 in 10.0 mi North 5.8 mph - N/A   Partly Cloudy
3:51 PM 66.9 °F - 3.0 °F 8% 30.13 in 10.0 mi NNW 5.8 mph - N/A   Partly Cloudy
4:51 PM 66.9 °F - 3.9 °F 8% 30.12 in 10.0 mi West 6.9 mph - N/A   Partly Cloudy
5:51 PM 64.0 °F - 6.1 °F 10% 30.12 in 10.0 mi West 8.1 mph - N/A   Partly Cloudy
6:51 PM 62.1 °F - 6.1 °F 11% 30.14 in 10.0 mi West 5.8 mph - N/A   Partly Cloudy
7:51 PM 57.9 °F - 10.0 °F 15% 30.14 in 10.0 mi WSW 3.5 mph - N/A   Clear
8:51 PM 57.0 °F - 10.0 °F 15% 30.15 in 10.0 mi West 5.8 mph - N/A   Clear
9:51 PM 54.0 °F - 12.9 °F 20% 30.15 in 10.0 mi Calm Calm - N/A   Clear
10:51 PM 52.0 °F - 16.0 °F 24% 30.14 in 10.0 mi ENE 3.5 mph - N/A   Clear
11:51 PM 50.0 °F - 19.9 °F 31% 30.12 in 10.0 mi East 5.8 mph - N/A   Clear